OK2ZI Weather Reports


time (UTC)temp
C
wind
direction
speed
KPH
gust
KPH
rain 1hr
cm
rain 24hr
cm
rain mn
cm
humidity
%
barometer
mb
20260502232012 4 246 0.0 0.0 0.00 0.00 0.00 75 1016.0
20260502231807 4 241 0.0 0.0 0.00 0.00 0.00 78 1016.0
20260502231606 4 241 0.0 0.0 0.00 0.00 0.00 78 1016.0
20260502231406 4 241 0.0 0.0 0.00 0.00 0.00 78 1017.0
20260502231206 3 241 9.7 9.7 0.00 0.00 0.00 78 1017.0
20260502230807 3 241 0.0 0.0 0.00 0.00 0.00 79 1016.0
20260502230606 3 241 8.0 8.0 0.00 0.00 0.00 79 1016.0
20260502230406 5 241 8.0 8.0 0.00 0.00 0.00 75 1016.0
20260502230206 6 241 0.0 0.0 0.00 0.00 0.00 70 1016.0
20260502230022 5 241 12.9 12.9 0.00 0.00 0.00 67 1017.0
20260502225606 5 241 0.0 0.0 0.00 0.00 0.00 71 1017.0
20260502225406 5 241 9.7 9.7 0.00 0.00 0.00 71 1017.0
20260502225206 5 241 9.7 9.7 0.00 0.00 0.00 74 1017.0
20260502225010 5 241 0.0 0.0 0.00 0.00 0.00 75 1017.0
20260502224806 5 241 8.0 8.0 0.00 0.00 0.00 73 1017.0
20260502224606 5 241 0.0 0.0 0.00 0.00 0.00 72 1017.0
20260502224406 5 241 0.0 0.0 0.00 0.00 0.00 73 1016.0
20260502224207 5 241 12.9 12.9 0.00 0.00 0.00 73 1016.0
20260502224011 5 241 8.0 8.0 0.00 0.00 0.00 75 1017.0
20260502223805 5 241 12.9 12.9 0.00 0.00 0.00 75 1017.0
20260502223407 5 241 8.0 8.0 0.00 0.00 0.00 71 1017.0
20260502223206 6 242 8.0 8.0 0.00 0.00 0.00 69 1017.0
20260502223014 6 242 11.3 11.3 0.00 0.00 0.00 66 1017.0
20260502222806 7 242 0.0 0.0 0.00 0.00 0.00 63 1017.0
20260502222606 7 242 0.0 0.0 0.00 0.00 0.00 62 1017.0
20260502222407 7 242 0.0 0.0 0.00 0.00 0.00 61 1017.0
20260502222009 6 242 0.0 0.0 0.00 0.00 0.00 61 1017.0
20260502221806 6 241 0.0 0.0 0.00 0.00 0.00 64 1017.0
20260502221407 6 241 0.0 0.0 0.00 0.00 0.00 66 1017.0
20260502221207 7 241 0.0 0.0 0.00 0.00 0.00 66 1017.0
20260502220606 7 242 0.0 0.0 0.00 0.00 0.00 64 1017.0
20260502220407 7 242 0.0 0.0 0.00 0.00 0.00 63 1017.0
20260502220022 8 242 0.0 0.0 0.00 0.00 0.00 61 1017.0
20260502215807 7 242 0.0 0.0 0.00 0.00 0.00 61 1017.0
20260502215606 7 241 0.0 0.0 0.00 0.00 0.00 61 1017.0
20260502215406 7 241 0.0 0.0 0.00 0.00 0.00 63 1017.0
20260502215206 7 241 9.7 9.7 0.00 0.00 0.00 65 1017.0
20260502215010 7 241 0.0 0.0 0.00 0.00 0.00 66 1017.0
20260502214806 7 241 0.0 0.0 0.00 0.00 0.00 66 1017.0
20260502214606 6 241 0.0 0.0 0.00 0.00 0.00 67 1017.0
20260502214206 6 241 0.0 0.0 0.00 0.00 0.00 69 1017.0
20260502214010 6 241 8.0 8.0 0.00 0.00 0.00 68 1017.0
20260502213806 6 241 11.3 11.3 0.00 0.00 0.00 68 1017.0
20260502213606 6 241 12.9 12.9 0.00 0.00 0.00 74 1017.0
20260502213408 6 241 9.7 9.7 0.00 0.00 0.00 72 1017.0
20260502213207 6 241 8.0 8.0 0.00 0.00 0.00 72 1017.0
20260502213012 6 241 8.0 8.0 0.00 0.00 0.00 72 1017.0
20260502212806 6 241 8.0 8.0 0.00 0.00 0.00 72 1017.0
20260502212606 6 241 8.0 8.0 0.00 0.00 0.00 72 1017.0
20260502212406 7 241 8.0 8.0 0.00 0.00 0.00 69 1017.0
20260502212206 7 241 0.0 0.0 0.00 0.00 0.00 68 1017.0
20260502211805 7 242 9.7 9.7 0.00 0.00 0.00 65 1017.0
20260502211607 7 240 12.9 12.9 0.00 0.00 0.00 65 1017.0
20260502211405 7 240 8.0 8.0 0.00 0.00 0.00 64 1017.0
20260502211207 6 240 8.0 8.0 0.00 0.00 0.00 64 1017.0
20260502211008 6 240 0.0 0.0 0.00 0.00 0.00 67 1017.0
20260502210807 6 240 0.0 0.0 0.00 0.00 0.00 72 1017.0
20260502210606 6 240 0.0 0.0 0.00 0.00 0.00 74 1017.0
20260502210407 6 240 0.0 0.0 0.00 0.00 0.00 73 1017.0
20260502210205 6 240 0.0 0.0 0.00 0.00 0.00 73 1017.0
20260502210017 7 240 0.0 0.0 0.00 0.00 0.00 69 1017.0
20260502205804 8 240 11.3 11.3 0.00 0.00 0.00 62 1017.0
20260502205405 7 240 9.7 9.7 0.00 0.00 0.00 58 1017.0
20260502205206 7 240 0.0 0.0 0.00 0.00 0.00 61 1017.0
20260502205010 6 240 8.0 8.0 0.00 0.00 0.00 65 1017.0
20260502204606 6 240 0.0 0.0 0.00 0.00 0.00 73 1017.0
20260502204407 6 240 9.7 9.7 0.00 0.00 0.00 74 1017.0
20260502204207 6 240 12.9 12.9 0.00 0.00 0.00 72 1017.0
20260502204008 7 240 9.7 9.7 0.00 0.00 0.00 71 1017.0
20260502203807 7 240 0.0 0.0 0.00 0.00 0.00 68 1017.0
20260502203607 8 240 8.0 8.0 0.00 0.00 0.00 65 1017.0
20260502203016 9 240 0.0 0.0 0.00 0.00 0.00 59 1017.0
20260502202807 9 240 0.0 0.0 0.00 0.00 0.00 59 1017.0
20260502202607 9 240 0.0 0.0 0.00 0.00 0.00 59 1017.0
20260502202207 8 240 0.0 0.0 0.00 0.00 0.00 60 1017.0
20260502202011 8 240 0.0 0.0 0.00 0.00 0.00 61 1017.0
20260502201607 7 240 9.7 9.7 0.00 0.00 0.00 68 1017.0
20260502201406 7 240 8.0 8.0 0.00 0.00 0.00 69 1017.0
20260502201011 7 222 12.9 12.9 0.00 0.00 0.00 70 1017.0
20260502200806 8 222 12.9 12.9 0.00 0.00 0.00 68 1017.0
20260502200606 8 222 11.3 11.3 0.00 0.00 0.00 66 1017.0
20260502200406 9 222 9.7 9.7 0.00 0.00 0.00 62 1017.0
20260502200205 10 222 11.3 11.3 0.00 0.00 0.00 59 1017.0
20260502200021 10 222 0.0 0.0 0.00 0.00 0.00 59 1017.0
20260502195606 9 222 0.0 0.0 0.00 0.00 0.00 60 1017.0
20260502195405 8 222 8.0 8.0 0.00 0.00 0.00 61 1017.0
20260502195207 8 222 12.9 12.9 0.00 0.00 0.00 61 1017.0
20260502195011 8 222 9.7 9.7 0.00 0.00 0.00 62 1017.0
20260502194606 8 168 8.0 8.0 0.00 0.00 0.00 69 1017.0
20260502194407 8 168 0.0 0.0 0.00 0.00 0.00 60 1017.0
20260502194204 8 168 0.0 0.0 0.00 0.00 0.00 63 1017.0
20260502194009 8 168 0.0 0.0 0.00 0.00 0.00 66 1017.0
20260502193805 8 168 0.0 0.0 0.00 0.00 0.00 67 1017.0
20260502193605 8 168 0.0 0.0 0.00 0.00 0.00 67 1017.0
20260502193407 8 168 0.0 0.0 0.00 0.00 0.00 68 1017.0
20260502193016 11 168 9.7 9.7 0.00 0.00 0.00 56 1017.0
20260502192805 11 168 8.0 8.0 0.00 0.00 0.00 55 1017.0
20260502192605 11 168 0.0 0.0 0.00 0.00 0.00 57 1017.0
20260502192407 10 168 0.0 0.0 0.00 0.00 0.00 57 1017.0
20260502192207 10 168 0.0 0.0 0.00 0.00 0.00 57 1017.0
20260502192011 10 168 0.0 0.0 0.00 0.00 0.00 57 1017.0
20260502191805 10 168 0.0 0.0 0.00 0.00 0.00 58 1017.0
20260502191606 10 168 0.0 0.0 0.00 0.00 0.00 59 1017.0
20260502191204 11 168 0.0 0.0 0.00 0.00 0.00 57 1017.0
20260502191008 11 168 0.0 0.0 0.00 0.00 0.00 58 1017.0
20260502190807 11 168 0.0 0.0 0.00 0.00 0.00 58 1017.0
20260502190606 11 168 0.0 0.0 0.00 0.00 0.00 59 1017.0
20260502190405 11 168 0.0 0.0 0.00 0.00 0.00 59 1017.0
20260502190022 11 168 0.0 0.0 0.00 0.00 0.00 59 1017.0
20260502185807 11 168 0.0 0.0 0.00 0.00 0.00 57 1017.0
20260502185607 12 168 0.0 0.0 0.00 0.00 0.00 55 1017.0
20260502185207 12 168 0.0 0.0 0.00 0.00 0.00 56 1017.0
20260502185011 12 168 0.0 0.0 0.00 0.00 0.00 55 1017.0
20260502184805 12 168 0.0 0.0 0.00 0.00 0.00 54 1017.0
20260502184607 12 168 0.0 0.0 0.00 0.00 0.00 53 1017.0
20260502184407 12 168 0.0 0.0 0.00 0.00 0.00 53 1017.0
20260502184206 12 168 0.0 0.0 0.00 0.00 0.00 53 1017.0
20260502183807 12 168 0.0 0.0 0.00 0.00 0.00 54 1017.0
20260502183606 13 168 0.0 0.0 0.00 0.00 0.00 53 1017.0
20260502183405 13 168 0.0 0.0 0.00 0.00 0.00 53 1017.0
20260502183016 13 174 0.0 0.0 0.00 0.00 0.00 51 1017.0
20260502182805 13 174 0.0 0.0 0.00 0.00 0.00 49 1017.0
20260502182606 14 174 0.0 0.0 0.00 0.00 0.00 50 1017.0
20260502182405 14 174 0.0 0.0 0.00 0.00 0.00 50 1017.0
20260502182205 14 174 0.0 0.0 0.00 0.00 0.00 50 1017.0
20260502182009 15 174 0.0 0.0 0.00 0.00 0.00 49 1017.0
20260502181606 15 174 0.0 0.0 0.00 0.00 0.00 47 1017.0
20260502181207 16 174 0.0 0.0 0.00 0.00 0.00 45 1017.0
20260502180606 16 174 0.0 0.0 0.00 0.00 0.00 45 1017.0
20260502180407 16 174 0.0 0.0 0.00 0.00 0.00 45 1017.0
20260502180206 17 174 0.0 0.0 0.00 0.00 0.00 44 1017.0
20260502170207 23 126 0.0 0.0 0.00 0.00 0.00 30 1017.0
20260502164012 23 55 11.3 11.3 0.00 0.00 0.00 27 1017.0
20260502163805 23 11 0.0 0.0 0.00 0.00 0.00 26 1017.0
20260502163606 23 11 0.0 0.0 0.00 0.00 0.00 27 1017.0
20260502163406 23 6 8.0 8.0 0.00 0.00 0.00 31 1017.0
20260502163206 23 35 9.7 9.7 0.00 0.00 0.00 27 1017.0
20260502163016 23 35 8.0 8.0 0.00 0.00 0.00 27 1017.0
20260502162806 23 35 0.0 0.0 0.00 0.00 0.00 27 1017.0
20260502162606 25 212 0.0 0.0 0.00 0.00 0.00 28 1017.0
20260502162407 25 212 0.0 0.0 0.00 0.00 0.00 26 1017.0
20260502162207 24 212 8.0 8.0 0.00 0.00 0.00 26 1017.0
20260502162015 24 212 0.0 0.0 0.00 0.00 0.00 29 1017.0
20260502161807 24 212 0.0 0.0 0.00 0.00 0.00 27 1017.0
20260502161606 24 212 0.0 0.0 0.00 0.00 0.00 29 1017.0
20260502161407 24 212 0.0 0.0 0.00 0.00 0.00 28 1017.0
20260502161206 23 212 8.0 8.0 0.00 0.00 0.00 28 1017.0
20260502161010 23 233 12.9 12.9 0.00 0.00 0.00 26 1018.0
20260502160813 23 260 8.0 8.0 0.00 0.00 0.00 29 1018.0
20260502160606 22 264 0.0 0.0 0.00 0.00 0.00 27 1018.0
20260502160207 23 265 11.3 11.3 0.00 0.00 0.00 28 1017.0
20260502152207 22 336 11.3 11.3 0.00 0.00 0.00 28 1018.0
20260502152012 22 333 8.0 8.0 0.00 0.00 0.00 31 1018.0
20260502151808 22 41 0.0 0.0 0.00 0.00 0.00 29 1018.0
20260502151607 23 282 12.9 12.9 0.00 0.00 0.00 31 1018.0
20260502151407 24 284 11.3 11.3 0.00 0.00 0.00 29 1018.0
20260502151013 25 180 14.5 14.5 0.00 0.00 0.00 25 1018.0
20260502150807 25 183 8.0 8.0 0.00 0.00 0.00 24 1018.0
20260502150611 25 183 8.0 8.0 0.00 0.00 0.00 25 1018.0
20260502150412 25 211 0.0 0.0 0.00 0.00 0.00 26 1018.0
20260502150206 25 211 0.0 0.0 0.00 0.00 0.00 25 1018.0
20260502130607 24 196 8.0 8.0 0.00 0.00 0.00 26 1019.0
20260502130407 24 196 12.9 12.9 0.00 0.00 0.00 26 1019.0
20260502130219 24 120 8.0 8.0 0.00 0.00 0.00 26 1019.0
20260502123806 22 50 0.0 0.0 0.00 0.00 0.00 28 1020.0
20260502123608 22 189 8.0 8.0 0.00 0.00 0.00 27 1020.0
20260502123408 22 190 9.7 9.7 0.00 0.00 0.00 28 1020.0
20260502123206 22 90 0.0 0.0 0.00 0.00 0.00 29 1020.0
20260502123015 22 126 0.0 0.0 0.00 0.00 0.00 28 1020.0
20260502122807 22 59 14.5 14.5 0.00 0.00 0.00 28 1020.0
20260502122406 21 106 0.0 0.0 0.00 0.00 0.00 31 1020.0
20260502122012 21 72 29.0 30.6 0.00 0.00 0.00 32 1020.0
20260502121807 21 348 14.5 14.5 0.00 0.00 0.00 31 1020.0
20260502121606 21 318 22.5 22.5 0.00 0.00 0.00 31 1020.0
20260502121407 21 256 8.0 8.0 0.00 0.00 0.00 30 1020.0
20260502121208 21 43 8.0 8.0 0.00 0.00 0.00 30 1020.0
20260502121012 21 84 12.9 12.9 0.00 0.00 0.00 31 1020.0
20260502120806 21 348 12.9 12.9 0.00 0.00 0.00 31 1020.0
20260502120606 21 73 12.9 12.9 0.00 0.00 0.00 30 1020.0
20260502120407 21 90 12.9 12.9 0.00 0.00 0.00 31 1020.0
20260502120210 21 256 12.9 12.9 0.00 0.00 0.00 34 1020.0
20260502115806 21 91 11.3 11.3 0.00 0.00 0.00 30 1020.0
20260502115606 21 81 0.0 0.0 0.00 0.00 0.00 31 1020.0
20260502115407 21 284 8.0 8.0 0.00 0.00 0.00 31 1020.0
20260502114810 21 304 22.5 22.5 0.00 0.00 0.00 37 1020.0
20260502114611 21 271 12.9 12.9 0.00 0.00 0.00 39 1020.0
20260502114208 21 330 14.5 14.5 0.00 0.00 0.00 36 1020.0
20260502114012 21 354 0.0 0.0 0.00 0.00 0.00 33 1020.0
20260502113608 22 185 0.0 0.0 0.00 0.00 0.00 35 1020.0
20260502113408 22 184 12.9 12.9 0.00 0.00 0.00 31 1020.0
20260502113207 22 184 9.7 9.7 0.00 0.00 0.00 32 1020.0
20260502113016 21 179 8.0 8.0 0.00 0.00 0.00 30 1020.0
20260502112810 21 183 22.5 22.5 0.00 0.00 0.00 33 1020.0
20260502112606 20 232 24.1 27.4 0.00 0.00 0.00 34 1020.0
20260502112407 20 216 14.5 14.5 0.00 0.00 0.00 38 1020.0
20260502112207 20 282 22.5 22.5 0.00 0.00 0.00 34 1020.0
20260502112025 20 299 14.5 14.5 0.00 0.00 0.00 38 1020.0
20260502111806 20 264 14.5 14.5 0.00 0.00 0.00 35 1020.0
20260502111606 21 282 25.7 27.4 0.00 0.00 0.00 37 1020.0
20260502111407 21 210 27.4 29.0 0.00 0.00 0.00 33 1020.0
20260502111206 21 216 22.5 22.5 0.00 0.00 0.00 34 1020.0
20260502111016 20 270 22.5 22.5 0.00 0.00 0.00 37 1020.0
20260502110808 20 230 0.0 0.0 0.00 0.00 0.00 33 1020.0
20260502110608 20 244 29.0 30.6 0.00 0.00 0.00 38 1020.0
20260502110407 20 300 14.5 14.5 0.00 0.00 0.00 37 1021.0
20260502110210 21 271 0.0 0.0 0.00 0.00 0.00 34 1021.0
20260502110019 21 272 12.9 12.9 0.00 0.00 0.00 37 1021.0
20260502105808 21 192 12.9 12.9 0.00 0.00 0.00 35 1021.0
20260502105606 20 186 12.9 12.9 0.00 0.00 0.00 31 1021.0
20260502105406 20 276 25.7 27.4 0.00 0.00 0.00 34 1020.0
20260502105206 20 305 12.9 12.9 0.00 0.00 0.00 39 1020.0
20260502104806 20 10 24.1 24.1 0.00 0.00 0.00 35 1021.0
20260502104607 20 217 12.9 12.9 0.00 0.00 0.00 32 1021.0
20260502104408 21 180 0.0 0.0 0.00 0.00 0.00 33 1021.0
20260502104013 21 78 8.0 8.0 0.00 0.00 0.00 33 1021.0
20260502103806 21 186 9.7 9.7 0.00 0.00 0.00 31 1021.0
20260502103607 21 173 0.0 0.0 0.00 0.00 0.00 34 1021.0
20260502103404 20 94 0.0 0.0 0.00 0.00 0.00 33 1021.0
20260502103015 20 192 24.1 27.4 0.00 0.00 0.00 34 1021.0
20260502102809 22 152 11.3 11.3 0.00 0.00 0.00 32 1021.0
20260502102607 22 173 0.0 0.0 0.00 0.00 0.00 33 1021.0
20260502102407 22 192 9.7 9.7 0.00 0.00 0.00 32 1021.0
20260502102207 21 184 12.9 12.9 0.00 0.00 0.00 33 1021.0
20260502102013 21 173 14.5 14.5 0.00 0.00 0.00 33 1021.0
20260502101809 21 196 0.0 0.0 0.00 0.00 0.00 33 1021.0
20260502101608 21 196 25.7 27.4 0.00 0.00 0.00 30 1021.0
20260502101206 21 192 12.9 12.9 0.00 0.00 0.00 31 1021.0
20260502101013 21 192 12.9 12.9 0.00 0.00 0.00 31 1021.0
20260502100807 20 162 12.9 12.9 0.00 0.00 0.00 34 1021.0
20260502100207 20 30 9.7 9.7 0.00 0.00 0.00 34 1021.0
20260502091207 20 112 8.0 8.0 0.00 0.00 0.00 34 1022.0
20260502091007 20 180 12.9 12.9 0.00 0.00 0.00 34 1022.0
20260502090807 20 105 9.7 9.7 0.00 0.00 0.00 34 1022.0
20260502090607 20 54 12.9 12.9 0.00 0.00 0.00 35 1022.0
20260502090405 20 54 14.5 14.5 0.00 0.00 0.00 35 1022.0
20260502090207 20 162 0.0 0.0 0.00 0.00 0.00 34 1022.0
20260502071406 18 78 0.0 0.0 0.00 0.00 0.00 38 1022.0
20260502071207 18 78 0.0 0.0 0.00 0.00 0.00 40 1022.0
20260502071008 17 92 0.0 0.0 0.00 0.00 0.00 39 1022.0
20260502070807 17 88 0.0 0.0 0.00 0.00 0.00 39 1022.0
20260502070606 17 50 22.5 22.5 0.00 0.00 0.00 40 1022.0
20260502070407 17 108 9.7 9.7 0.00 0.00 0.00 42 1022.0
20260502065807 16 78 11.3 11.3 0.00 0.00 0.00 45 1022.0
20260502065606 16 35 0.0 0.0 0.00 0.00 0.00 44 1022.0
20260502065407 16 32 9.7 9.7 0.00 0.00 0.00 47 1022.0
20260502065207 16 39 14.5 14.5 0.00 0.00 0.00 48 1022.0
20260502065011 16 6 9.7 9.7 0.00 0.00 0.00 47 1022.0
20260502064606 16 60 11.3 11.3 0.00 0.00 0.00 48 1022.0
20260502064407 16 12 14.5 14.5 0.00 0.00 0.00 47 1022.0
20260502064206 16 330 11.3 11.3 0.00 0.00 0.00 49 1022.0
20260502064013 16 331 0.0 0.0 0.00 0.00 0.00 47 1022.0
20260502063807 16 34 14.5 14.5 0.00 0.00 0.00 49 1022.0
20260502063607 16 348 8.0 8.0 0.00 0.00 0.00 50 1022.0
20260502063406 15 347 11.3 11.3 0.00 0.00 0.00 49 1022.0
20260502062807 15 32 8.0 8.0 0.00 0.00 0.00 48 1022.0
20260502062605 15 348 11.3 11.3 0.00 0.00 0.00 48 1022.0
20260502062407 15 347 12.9 12.9 0.00 0.00 0.00 52 1022.0
20260502062206 15 40 8.0 8.0 0.00 0.00 0.00 50 1022.0
20260502062012 15 24 14.5 14.5 0.00 0.00 0.00 48 1022.0
20260502061807 15 17 12.9 12.9 0.00 0.00 0.00 50 1022.0
20260502061606 15 342 0.0 0.0 0.00 0.00 0.00 52 1022.0
20260502061407 15 302 9.7 9.7 0.00 0.00 0.00 53 1022.0
20260502061011 15 354 0.0 0.0 0.00 0.00 0.00 50 1022.0
20260502060807 15 326 14.5 14.5 0.00 0.00 0.00 49 1022.0
20260502060607 15 40 22.5 22.5 0.00 0.00 0.00 50 1022.0
20260502060407 15 47 12.9 12.9 0.00 0.00 0.00 51 1022.0
20260502060205 14 28 14.5 14.5 0.00 0.00 0.00 50 1022.0
20260502060024 14 54 12.9 12.9 0.00 0.00 0.00 52 1022.0
20260502055806 14 294 0.0 0.0 0.00 0.00 0.00 54 1022.0
20260502055606 13 303 0.0 0.0 0.00 0.00 0.00 55 1022.0
20260502055406 13 310 11.3 11.3 0.00 0.00 0.00 55 1022.0
20260502055207 13 312 8.0 8.0 0.00 0.00 0.00 56 1022.0
20260502055011 13 312 9.7 9.7 0.00 0.00 0.00 58 1022.0
20260502054606 12 292 14.5 14.5 0.00 0.00 0.00 59 1022.0
20260502054207 12 282 11.3 11.3 0.00 0.00 0.00 61 1022.0
20260502053807 12 292 12.9 12.9 0.00 0.00 0.00 63 1022.0
20260502053606 12 280 14.5 14.5 0.00 0.00 0.00 62 1022.0
20260502053407 12 294 12.9 12.9 0.00 0.00 0.00 63 1022.0
20260502053207 12 288 11.3 11.3 0.00 0.00 0.00 64 1022.0
20260502053016 12 300 0.0 0.0 0.00 0.00 0.00 65 1022.0
20260502052806 12 300 8.0 8.0 0.00 0.00 0.00 63 1022.0
20260502052606 12 300 0.0 0.0 0.00 0.00 0.00 60 1022.0
20260502052206 11 300 8.0 8.0 0.00 0.00 0.00 63 1022.0
20260502051806 11 294 11.3 11.3 0.00 0.00 0.00 63 1022.0
20260502051406 10 294 0.0 0.0 0.00 0.00 0.00 69 1022.0
20260502051206 10 294 0.0 0.0 0.00 0.00 0.00 69 1022.0
20260502050806 10 286 9.7 9.7 0.00 0.00 0.00 69 1022.0
20260502050606 10 286 0.0 0.0 0.00 0.00 0.00 67 1022.0
20260502050406 10 286 0.0 0.0 0.00 0.00 0.00 66 1022.0
20260502050018 9 282 0.0 0.0 0.00 0.00 0.00 68 1022.0
20260502045806 8 282 0.0 0.0 0.00 0.00 0.00 71 1022.0
20260502045407 8 282 0.0 0.0 0.00 0.00 0.00 71 1022.0
20260502045207 7 282 0.0 0.0 0.00 0.00 0.00 74 1022.0
20260502045010 7 282 8.0 8.0 0.00 0.00 0.00 75 1022.0
20260502044807 7 282 0.0 0.0 0.00 0.00 0.00 75 1022.0
20260502044611 7 282 0.0 0.0 0.00 0.00 0.00 76 1022.0
20260502044406 7 282 0.0 0.0 0.00 0.00 0.00 77 1022.0
20260502044206 6 282 0.0 0.0 0.00 0.00 0.00 78 1022.0
20260502044012 6 282 0.0 0.0 0.00 0.00 0.00 78 1022.0
20260502043806 6 282 0.0 0.0 0.00 0.00 0.00 78 1022.0
20260502043606 6 282 0.0 0.0 0.00 0.00 0.00 78 1022.0
20260502043206 6 282 0.0 0.0 0.00 0.00 0.00 78 1022.0
20260502042807 5 282 0.0 0.0 0.00 0.00 0.00 77 1022.0
20260502042613 5 282 0.0 0.0 0.00 0.00 0.00 78 1022.0
20260502042407 5 282 0.0 0.0 0.00 0.00 0.00 79 1022.0
20260502042206 5 282 0.0 0.0 0.00 0.00 0.00 80 1022.0
20260502042011 4 282 0.0 0.0 0.00 0.00 0.00 81 1022.0
20260502041406 4 282 0.0 0.0 0.00 0.00 0.00 83 1022.0
20260502041012 4 282 0.0 0.0 0.00 0.00 0.00 83 1022.0
20260502040806 4 282 0.0 0.0 0.00 0.00 0.00 83 1022.0
20260502040607 3 282 0.0 0.0 0.00 0.00 0.00 83 1022.0
20260502040407 3 282 0.0 0.0 0.00 0.00 0.00 84 1022.0
20260502040207 3 282 0.0 0.0 0.00 0.00 0.00 83 1022.0
20260502040019 3 282 0.0 0.0 0.00 0.00 0.00 83 1022.0
20260502035605 3 282 9.7 9.7 0.00 0.00 0.00 84 1022.0
20260502035206 3 282 0.0 0.0 0.00 0.00 0.00 84 1022.0
20260502035010 3 282 0.0 0.0 0.00 0.00 0.00 84 1022.0
20260502034806 3 282 0.0 0.0 0.00 0.00 0.00 84 1022.0
20260502034607 3 282 0.0 0.0 0.00 0.00 0.00 84 1022.0
20260502034404 3 282 0.0 0.0 0.00 0.00 0.00 84 1022.0
20260502034207 3 282 0.0 0.0 0.00 0.00 0.00 84 1022.0
20260502033806 3 282 0.0 0.0 0.00 0.00 0.00 84 1022.0
20260502033606 3 282 0.0 0.0 0.00 0.00 0.00 84 1022.0
20260502033406 3 282 8.0 8.0 0.00 0.00 0.00 84 1022.0
20260502033206 3 282 8.0 8.0 0.00 0.00 0.00 83 1022.0
20260502033015 3 282 0.0 0.0 0.00 0.00 0.00 83 1022.0
20260502032806 4 282 0.0 0.0 0.00 0.00 0.00 82 1022.0
20260502032606 4 282 0.0 0.0 0.00 0.00 0.00 82 1022.0
20260502032406 4 282 0.0 0.0 0.00 0.00 0.00 81 1022.0
20260502032206 4 282 0.0 0.0 0.00 0.00 0.00 80 1022.0
20260502032011 5 282 0.0 0.0 0.00 0.00 0.00 79 1022.0
20260502031807 5 282 0.0 0.0 0.00 0.00 0.00 78 1022.0
20260502031605 5 281 8.0 8.0 0.00 0.00 0.00 77 1022.0
20260502031206 4 281 12.9 12.9 0.00 0.00 0.00 79 1022.0
20260502031010 4 281 0.0 0.0 0.00 0.00 0.00 80 1022.0
20260502030807 4 281 0.0 0.0 0.00 0.00 0.00 81 1022.0
20260502030607 4 281 0.0 0.0 0.00 0.00 0.00 81 1022.0
20260502030407 4 281 0.0 0.0 0.00 0.00 0.00 82 1022.0
20260502030206 4 281 0.0 0.0 0.00 0.00 0.00 81 1022.0
20260502030027 5 281 0.0 0.0 0.00 0.00 0.00 80 1022.0
20260502025806 5 282 0.0 0.0 0.00 0.00 0.00 80 1022.0
20260502025607 5 282 0.0 0.0 0.00 0.00 0.00 79 1022.0
20260502025407 5 282 0.0 0.0 0.00 0.00 0.00 79 1022.0
20260502025206 5 282 0.0 0.0 0.00 0.00 0.00 79 1022.0
20260502025010 5 282 0.0 0.0 0.00 0.00 0.00 78 1022.0
20260502024806 5 282 0.0 0.0 0.00 0.00 0.00 77 1022.0
20260502024606 5 282 9.7 9.7 0.00 0.00 0.00 77 1022.0
20260502024407 5 282 0.0 0.0 0.00 0.00 0.00 79 1022.0
20260502024012 4 282 0.0 0.0 0.00 0.00 0.00 81 1022.0
20260502023806 4 282 0.0 0.0 0.00 0.00 0.00 80 1022.0
20260502023607 3 282 0.0 0.0 0.00 0.00 0.00 83 1022.0
20260502023406 3 282 0.0 0.0 0.00 0.00 0.00 83 1022.0
20260502023206 4 282 8.0 8.0 0.00 0.00 0.00 82 1022.0
20260502023016 3 282 0.0 0.0 0.00 0.00 0.00 81 1022.0
20260502022807 3 282 11.3 11.3 0.00 0.00 0.00 82 1022.0
20260502022605 3 282 0.0 0.0 0.00 0.00 0.00 83 1022.0
20260502022406 3 282 8.0 8.0 0.00 0.00 0.00 83 1022.0
20260502022206 3 282 0.0 0.0 0.00 0.00 0.00 83 1022.0
20260502022011 3 282 8.0 8.0 0.00 0.00 0.00 84 1022.0
20260502021807 3 282 8.0 8.0 0.00 0.00 0.00 83 1022.0
20260502021606 3 282 8.0 8.0 0.00 0.00 0.00 83 1022.0
20260502021407 3 282 9.7 9.7 0.00 0.00 0.00 83 1022.0
20260502021207 3 282 0.0 0.0 0.00 0.00 0.00 84 1022.0
20260502021011 3 282 0.0 0.0 0.00 0.00 0.00 83 1022.0
20260502020807 3 282 9.7 9.7 0.00 0.00 0.00 83 1022.0
20260502020607 3 282 12.9 12.9 0.00 0.00 0.00 83 1022.0
20260502020407 3 282 12.9 12.9 0.00 0.00 0.00 84 1022.0
20260502020206 3 282 12.9 12.9 0.00 0.00 0.00 83 1022.0
20260502020026 3 282 0.0 0.0 0.00 0.00 0.00 83 1022.0
20260502015805 4 282 8.0 8.0 0.00 0.00 0.00 83 1022.0
20260502015607 4 282 0.0 0.0 0.00 0.00 0.00 83 1022.0
20260502015407 4 282 0.0 0.0 0.00 0.00 0.00 82 1022.0
20260502015206 4 282 0.0 0.0 0.00 0.00 0.00 82 1022.0
20260502015011 4 282 0.0 0.0 0.00 0.00 0.00 82 1022.0
20260502014806 4 282 0.0 0.0 0.00 0.00 0.00 82 1022.0
20260502014606 4 282 0.0 0.0 0.00 0.00 0.00 82 1022.0
20260502014406 4 282 0.0 0.0 0.00 0.00 0.00 82 1022.0
20260502014208 4 282 0.0 0.0 0.00 0.00 0.00 82 1022.0
20260502013606 3 282 9.7 9.7 0.00 0.00 0.00 83 1022.0
20260502013014 3 282 8.0 8.0 0.00 0.00 0.00 84 1022.0
20260502012807 4 282 8.0 8.0 0.00 0.00 0.00 83 1022.0
20260502012606 4 282 0.0 0.0 0.00 0.00 0.00 83 1022.0
20260502012407 4 282 8.0 8.0 0.00 0.00 0.00 83 1022.0
20260502012206 4 282 8.0 8.0 0.00 0.00 0.00 82 1022.0
20260502012011 4 282 8.0 8.0 0.00 0.00 0.00 82 1022.0
20260502011607 5 282 0.0 0.0 0.00 0.00 0.00 80 1022.0
20260502011407 5 282 8.0 8.0 0.00 0.00 0.00 80 1022.0
20260502011206 5 282 0.0 0.0 0.00 0.00 0.00 79 1022.0
20260502011012 5 282 8.0 8.0 0.00 0.00 0.00 79 1022.0
20260502010806 5 282 9.7 9.7 0.00 0.00 0.00 79 1022.0
20260502010606 5 282 0.0 0.0 0.00 0.00 0.00 78 1022.0
20260502010407 5 282 0.0 0.0 0.00 0.00 0.00 79 1022.0
20260502005807 5 282 0.0 0.0 0.00 0.00 0.00 80 1022.0
20260502005606 5 282 0.0 0.0 0.00 0.00 0.00 80 1022.0
20260502005206 5 282 14.5 14.5 0.00 0.00 0.00 80 1022.0
20260502005009 5 282 11.3 11.3 0.00 0.00 0.00 80 1022.0
20260502004806 5 282 8.0 8.0 0.00 0.00 0.00 80 1022.0
20260502004607 5 282 8.0 8.0 0.00 0.00 0.00 79 1022.0
20260502004406 5 282 11.3 11.3 0.00 0.00 0.00 79 1022.0
20260502004205 5 288 9.7 9.7 0.00 0.00 0.00 80 1022.0
20260502004012 5 287 8.0 8.0 0.00 0.00 0.00 80 1022.0
20260502003606 5 288 9.7 9.7 0.00 0.00 0.00 79 1022.0
20260502003407 5 288 0.0 0.0 0.00 0.00 0.00 79 1022.0
20260502003206 5 288 0.0 0.0 0.00 0.00 0.00 79 1022.0
20260502002807 5 294 11.3 11.3 0.00 0.00 0.00 78 1022.0
20260502002606 5 294 12.9 12.9 0.00 0.00 0.00 77 1022.0
20260502002407 6 312 9.7 9.7 0.00 0.00 0.00 76 1022.0
20260502002206 6 318 9.7 9.7 0.00 0.00 0.00 76 1022.0
20260502002012 6 318 0.0 0.0 0.00 0.00 0.00 76 1022.0
20260502001807 6 318 0.0 0.0 0.00 0.00 0.00 75 1022.0
20260502001607 6 318 0.0 0.0 0.00 0.00 0.00 74 1022.0
20260502001407 6 318 0.0 0.0 0.00 0.00 0.00 74 1022.0
20260502001207 5 318 9.7 9.7 0.00 0.00 0.00 75 1022.0
20260502001011 5 318 8.0 8.0 0.00 0.00 0.00 76 1022.0
20260502000806 5 318 8.0 8.0 0.00 0.00 0.00 78 1022.0
20260502000607 5 318 0.0 0.0 0.00 0.00 0.00 80 1022.0
20260502000409 5 318 9.7 9.7 0.00 0.00 0.00 79 1022.0
20260502000207 5 318 8.0 8.0 0.00 0.00 0.00 78 1022.0
20260502000021 5 318 0.0 0.0 0.00 0.00 0.00 78 1022.0
20260501235807 5 318 8.0 8.0 0.00 0.00 0.00 77 1022.0
20260501235606 6 318 0.0 0.0 0.00 0.00 0.00 75 1022.0
20260501235407 6 318 0.0 0.0 0.00 0.00 0.00 75 1022.0
20260501235207 6 318 0.0 0.0 0.00 0.00 0.00 75 1022.0
20260501235009 6 318 0.0 0.0 0.00 0.00 0.00 75 1022.0
20260501234806 6 318 0.0 0.0 0.00 0.00 0.00 74 1022.0
20260501234407 6 318 0.0 0.0 0.00 0.00 0.00 73 1022.0
20260501234207 6 318 0.0 0.0 0.00 0.00 0.00 73 1022.0
20260501234012 7 318 0.0 0.0 0.00 0.00 0.00 73 1022.0
20260501233807 7 318 0.0 0.0 0.00 0.00 0.00 72 1022.0
20260501233407 6 318 0.0 0.0 0.00 0.00 0.00 72 1022.0
20260501233206 6 318 8.0 8.0 0.00 0.00 0.00 73 1022.0
20260501233016 6 318 0.0 0.0 0.00 0.00 0.00 73 1022.0
20260501232807 6 318 0.0 0.0 0.00 0.00 0.00 74 1022.0
20260501232607 6 318 0.0 0.0 0.00 0.00 0.00 74 1022.0
20260501232207 6 318 0.0 0.0 0.00 0.00 0.00 73 1023.0